Time,TemperatureF,DewpointF,PressureIn,WindDirection,WindDirectionDegrees,WindSpeedMPH,WindSpeedGustMPH,Humidity,HourlyPrecipIn,Conditions,Clouds,dailyrainin,SoftwareType,DateUTC
2013-05-07 00:03:00,61.0,53.0,-100.00,SSE,155,2.0,3.0,75,0.00,,,-99.99,,2013-05-07 04:03:00,
2013-05-07 00:12:00,61.0,53.0,-100.00,SE,140,4.0,6.0,75,0.00,,,-99.99,,2013-05-07 04:12:00,
2013-05-07 00:23:00,61.0,53.0,-100.00,SE,135,4.0,8.0,76,0.00,,,-99.99,,2013-05-07 04:23:00,
2013-05-07 00:33:00,61.0,54.0,-100.00,SE,140,3.0,9.0,76,0.00,,,-99.99,,2013-05-07 04:33:00,
2013-05-07 00:42:00,61.0,54.0,-100.00,SE,145,4.0,7.0,77,0.00,,,-99.99,,2013-05-07 04:42:00,
2013-05-07 00:53:00,61.0,54.0,-100.00,SSE,160,4.0,7.0,78,0.00,,,-99.99,,2013-05-07 04:53:00,
2013-05-07 01:02:00,60.0,54.0,-100.00,SSE,160,4.0,7.0,79,0.00,,,-99.99,,2013-05-07 05:02:00,
2013-05-07 01:12:00,60.0,54.0,-100.00,SSE,155,4.0,7.0,80,0.00,,,-99.99,,2013-05-07 05:12:00,
2013-05-07 01:22:00,60.0,54.0,-100.00,ESE,120,2.0,7.0,81,0.00,,,-99.99,,2013-05-07 05:22:00,
2013-05-07 01:32:00,60.0,54.0,-100.00,SE,145,2.0,7.0,82,0.00,,,-99.99,,2013-05-07 05:32:00,
2013-05-07 01:42:00,59.0,55.0,-100.00,ESE,105,2.0,9.0,83,0.00,,,-99.99,,2013-05-07 05:42:00,
2013-05-07 01:52:00,60.0,55.0,-100.00,SE,135,4.0,9.0,83,0.00,,,-99.99,,2013-05-07 05:52:00,
2013-05-07 02:02:00,60.0,55.0,-100.00,ESE,120,4.0,12.0,83,0.00,,,-99.99,,2013-05-07 06:02:00,
2013-05-07 02:12:00,60.0,55.0,-100.00,SE,135,4.0,8.0,83,0.00,,,-99.99,,2013-05-07 06:12:00,
2013-05-07 02:22:00,60.0,55.0,-100.00,SE,140,2.0,7.0,84,0.00,,,-99.99,,2013-05-07 06:22:00,
2013-05-07 02:32:00,59.0,55.0,-100.00,ESE,115,3.0,6.0,85,0.00,,,-99.99,,2013-05-07 06:32:00,
2013-05-07 02:42:00,59.0,55.0,-100.00,East,95,1.0,7.0,85,0.00,,,-99.99,,2013-05-07 06:42:00,
2013-05-07 02:52:00,59.0,55.0,-100.00,SE,130,3.0,7.0,86,0.00,,,-99.99,,2013-05-07 06:52:00,
2013-05-07 03:02:00,59.0,55.0,-100.00,SE,130,4.0,8.0,86,0.00,,,-99.99,,2013-05-07 07:02:00,
2013-05-07 03:11:00,59.0,55.0,-100.00,SE,130,4.0,8.0,86,0.00,,,-99.99,,2013-05-07 07:11:00,
2013-05-07 03:22:00,59.0,55.0,-100.00,SE,145,4.0,8.0,87,0.00,,,-99.99,,2013-05-07 07:22:00,
2013-05-07 03:32:00,59.0,55.0,-100.00,SE,135,5.0,9.0,88,0.00,,,-99.99,,2013-05-07 07:32:00,
2013-05-07 03:42:00,59.0,55.0,-100.00,ESE,105,4.0,10.0,88,0.00,,,-99.99,,2013-05-07 07:42:00,
2013-05-07 03:53:00,59.0,55.0,-100.00,SE,130,4.0,9.0,88,0.00,,,-99.99,,2013-05-07 07:53:00,
2013-05-07 04:02:00,59.0,55.0,-100.00,SE,125,3.0,9.0,88,0.00,,,-99.99,,2013-05-07 08:02:00,
2013-05-07 04:11:00,58.0,55.0,-100.00,SSE,150,4.0,7.0,89,0.00,,,-99.99,,2013-05-07 08:11:00,
2013-05-07 04:21:00,58.0,55.0,-100.00,SSE,150,4.0,6.0,89,0.00,,,-99.99,,2013-05-07 08:21:00,
2013-05-07 04:32:00,59.0,55.0,-100.00,SE,125,2.0,12.0,89,0.00,,,-99.99,,2013-05-07 08:32:00,
2013-05-07 04:42:00,59.0,55.0,-100.00,SE,125,2.0,9.0,89,0.00,,,-99.99,,2013-05-07 08:42:00,
2013-05-07 04:52:00,58.0,55.0,-100.00,SE,145,3.0,7.0,89,0.00,,,-99.99,,2013-05-07 08:52:00,
2013-05-07 05:01:00,59.0,55.0,-100.00,SE,125,2.0,7.0,88,0.00,,,-99.99,,2013-05-07 09:01:00,
2013-05-07 05:11:00,59.0,55.0,-100.00,East,95,3.0,6.0,88,0.00,,,-99.99,,2013-05-07 09:11:00,
2013-05-07 05:22:00,59.0,55.0,-100.00,ESE,105,2.0,7.0,88,0.00,,,-99.99,,2013-05-07 09:22:00,
2013-05-07 05:33:00,59.0,55.0,-100.00,East,90,1.0,8.0,88,0.00,,,-99.99,,2013-05-07 09:33:00,
2013-05-07 05:42:00,59.0,55.0,-100.00,East,90,1.0,8.0,88,0.00,,,-99.99,,2013-05-07 09:42:00,
2013-05-07 05:52:00,59.0,55.0,-100.00,East,85,2.0,4.0,88,0.00,,,-99.99,,2013-05-07 09:52:00,
2013-05-07 06:03:00,58.0,55.0,-100.00,SE,140,2.0,6.0,88,0.00,,,-99.99,,2013-05-07 10:03:00,
2013-05-07 06:12:00,58.0,55.0,-100.00,SE,130,3.0,7.0,89,0.00,,,-99.99,,2013-05-07 10:12:00,
2013-05-07 06:23:00,58.0,55.0,-100.00,SE,130,3.0,7.0,89,0.00,,,-99.99,,2013-05-07 10:23:00,
2013-05-07 06:32:00,58.0,55.0,-100.00,SE,130,3.0,7.0,89,0.00,,,-99.99,,2013-05-07 10:32:00,
2013-05-07 06:42:00,58.0,55.0,-100.00,SE,130,3.0,7.0,89,0.00,,,-99.99,,2013-05-07 10:42:00,
2013-05-07 06:52:00,57.0,55.0,-100.00,East,95,2.0,6.0,91,0.00,,,-99.99,,2013-05-07 10:52:00,
2013-05-07 07:02:00,57.0,55.0,-100.00,ESE,110,1.0,5.0,91,0.00,,,-99.99,,2013-05-07 11:02:00,
2013-05-07 07:12:00,57.0,55.0,-100.00,East,90,2.0,4.0,91,0.00,,,-99.99,,2013-05-07 11:12:00,
2013-05-07 07:22:00,58.0,55.0,-100.00,East,100,1.0,4.0,91,0.00,,,-99.99,,2013-05-07 11:22:00,
2013-05-07 07:32:00,58.0,55.0,-100.00,SE,135,1.0,6.0,90,0.00,,,-99.99,,2013-05-07 11:32:00,
2013-05-07 07:42:00,58.0,56.0,-100.00,East,80,2.0,6.0,90,0.00,,,-99.99,,2013-05-07 11:42:00,
2013-05-07 07:52:00,58.0,56.0,-100.00,East,95,2.0,7.0,90,0.00,,,-99.99,,2013-05-07 11:52:00,
2013-05-07 08:02:00,58.0,56.0,-100.00,East,100,1.0,6.0,89,0.00,,,-99.99,,2013-05-07 12:02:00,
2013-05-07 08:11:00,59.0,56.0,-100.00,ESE,105,2.0,6.0,89,0.00,,,-99.99,,2013-05-07 12:11:00,
2013-05-07 08:21:00,59.0,56.0,-100.00,East,85,3.0,7.0,88,0.00,,,-99.99,,2013-05-07 12:21:00,
2013-05-07 08:32:00,59.0,56.0,-100.00,SE,145,2.0,7.0,87,0.00,,,-99.99,,2013-05-07 12:32:00,
2013-05-07 08:42:00,60.0,56.0,-100.00,SE,140,4.0,9.0,86,0.00,,,-99.99,,2013-05-07 12:42:00,
2013-05-07 08:52:00,60.0,56.0,-100.00,SE,140,4.0,9.0,86,0.00,,,-99.99,,2013-05-07 12:52:00,
2013-05-07 09:02:00,61.0,56.0,-100.00,SE,145,5.0,11.0,83,0.00,,,-99.99,,2013-05-07 13:02:00,
2013-05-07 09:11:00,63.0,57.0,-100.00,East,100,3.0,9.0,81,0.00,,,-99.99,,2013-05-07 13:11:00,
2013-05-07 09:21:00,64.0,57.0,-100.00,SSE,150,4.0,9.0,77,0.00,,,-99.99,,2013-05-07 13:21:00,
2013-05-07 09:32:00,64.0,56.0,-100.00,East,95,6.0,12.0,74,0.00,,,-99.99,,2013-05-07 13:32:00,
2013-05-07 09:42:00,65.0,56.0,-100.00,SE,125,6.0,9.0,72,0.00,,,-99.99,,2013-05-07 13:42:00,
2013-05-07 09:52:00,65.0,56.0,-100.00,ESE,105,6.0,11.0,71,0.00,,,-99.99,,2013-05-07 13:52:00,
2013-05-07 10:02:00,65.0,56.0,-100.00,ESE,120,2.0,10.0,73,0.00,,,-99.99,,2013-05-07 14:02:00,
2013-05-07 10:11:00,65.0,56.0,-100.00,East,95,4.0,8.0,72,0.00,,,-99.99,,2013-05-07 14:11:00,
2013-05-07 10:21:00,67.0,56.0,-100.00,ENE,70,6.0,9.0,67,0.00,,,-99.99,,2013-05-07 14:21:00,
2013-05-07 10:32:00,68.0,56.0,-100.00,ENE,70,4.0,9.0,65,0.00,,,-99.99,,2013-05-07 14:32:00,
2013-05-07 10:42:00,69.0,56.0,-100.00,East,90,6.0,11.0,63,0.00,,,-99.99,,2013-05-07 14:42:00,
2013-05-07 10:52:00,69.0,56.0,-100.00,East,90,6.0,11.0,63,0.00,,,-99.99,,2013-05-07 14:52:00,
2013-05-07 11:01:00,69.0,55.0,-100.00,SE,135,4.0,12.0,61,0.00,,,-99.99,,2013-05-07 15:01:00,
2013-05-07 11:12:00,69.0,55.0,-100.00,SE,135,4.0,12.0,61,0.00,,,-99.99,,2013-05-07 15:12:00,
2013-05-07 11:21:00,70.0,56.0,-100.00,East,95,3.0,10.0,60,0.00,,,-99.99,,2013-05-07 15:21:00,
2013-05-07 11:33:00,69.0,56.0,-100.00,ENE,70,7.0,11.0,62,0.00,,,-99.99,,2013-05-07 15:33:00,
2013-05-07 11:42:00,70.0,56.0,-100.00,East,100,4.0,11.0,61,0.00,,,-99.99,,2013-05-07 15:42:00,
2013-05-07 11:53:00,70.0,56.0,-100.00,East,100,4.0,11.0,61,0.00,,,-99.99,,2013-05-07 15:53:00,
2013-05-07 12:03:00,71.0,56.0,-100.00,North,10,4.0,7.0,59,0.00,,,-99.99,,2013-05-07 16:03:00,
2013-05-07 12:12:00,70.0,56.0,-100.00,SE,125,2.0,7.0,61,0.00,,,-99.99,,2013-05-07 16:12:00,
2013-05-07 12:22:00,70.0,56.0,-100.00,East,95,4.0,11.0,61,0.00,,,-99.99,,2013-05-07 16:22:00,
2013-05-07 12:32:00,69.0,56.0,-100.00,SSE,155,2.0,9.0,62,0.00,,,-99.99,,2013-05-07 16:32:00,
2013-05-07 12:41:00,68.0,56.0,-100.00,SE,140,6.0,9.0,63,0.00,,,-99.99,,2013-05-07 16:41:00,
2013-05-07 12:51:00,67.0,58.0,-100.00,East,95,3.0,9.0,72,0.55,,,-99.99,,2013-05-07 16:51:00,
2013-05-07 13:01:00,67.0,59.0,-100.00,ESE,120,4.0,6.0,74,0.00,,,-99.99,,2013-05-07 17:01:00,
2013-05-07 13:12:00,68.0,58.0,-100.00,SSE,160,6.0,8.0,68,0.00,,,-99.99,,2013-05-07 17:12:00,
2013-05-07 13:21:00,69.0,58.0,-100.00,South,175,4.0,9.0,66,0.00,,,-99.99,,2013-05-07 17:21:00,
2013-05-07 13:32:00,69.0,58.0,-100.00,East,100,4.0,10.0,66,0.00,,,-99.99,,2013-05-07 17:32:00,
2013-05-07 13:41:00,70.0,57.0,-100.00,East,100,4.0,9.0,64,0.00,,,-99.99,,2013-05-07 17:41:00,
2013-05-07 13:52:00,71.0,58.0,-100.00,East,95,4.0,9.0,62,0.00,,,-99.99,,2013-05-07 17:52:00,
2013-05-07 14:01:00,72.0,57.0,-100.00,ENE,65,4.0,12.0,59,0.00,,,-99.99,,2013-05-07 18:01:00,
2013-05-07 14:11:00,71.0,57.0,-100.00,SE,145,6.0,12.0,61,0.00,,,-99.99,,2013-05-07 18:11:00,
2013-05-07 14:21:00,70.0,57.0,-100.00,ESE,110,4.0,9.0,62,0.00,,,-99.99,,2013-05-07 18:21:00,
2013-05-07 14:31:00,69.0,56.0,-100.00,SSE,150,6.0,11.0,62,0.00,,,-99.99,,2013-05-07 18:31:00,
2013-05-07 14:42:00,71.0,57.0,-100.00,SE,140,4.0,10.0,61,0.00,,,-99.99,,2013-05-07 18:42:00,
2013-05-07 14:51:00,71.0,57.0,-100.00,SSE,160,9.0,14.0,60,0.00,,,-99.99,,2013-05-07 18:51:00,
2013-05-07 15:02:00,72.0,57.0,-100.00,SSE,155,9.0,11.0,58,0.00,,,-99.99,,2013-05-07 19:02:00,
2013-05-07 15:11:00,73.0,57.0,-100.00,South,185,4.0,13.0,55,0.00,,,-99.99,,2013-05-07 19:11:00,
2013-05-07 15:21:00,74.0,57.0,-100.00,SSE,150,6.0,12.0,55,0.00,,,-99.99,,2013-05-07 19:21:00,
2013-05-07 15:32:00,73.0,56.0,-100.00,SE,140,6.0,9.0,56,0.00,,,-99.99,,2013-05-07 19:32:00,
2013-05-07 15:42:00,73.0,57.0,-100.00,SSE,160,4.0,10.0,56,0.00,,,-99.99,,2013-05-07 19:42:00,
2013-05-07 15:52:00,72.0,55.0,-100.00,SE,130,6.0,11.0,55,0.00,,,-99.99,,2013-05-07 19:52:00,
2013-05-07 16:02:00,74.0,56.0,-100.00,East,85,5.0,12.0,53,0.00,,,-99.99,,2013-05-07 20:02:00,
2013-05-07 16:12:00,74.0,56.0,-100.00,East,85,5.0,12.0,53,0.00,,,-99.99,,2013-05-07 20:12:00,
2013-05-07 16:22:00,73.0,55.0,-100.00,North,0,4.0,9.0,53,0.00,,,-99.99,,2013-05-07 20:22:00,
2013-05-07 16:32:00,73.0,55.0,-100.00,SSE,155,5.0,9.0,53,0.00,,,-99.99,,2013-05-07 20:32:00,
2013-05-07 16:42:00,73.0,54.0,-100.00,ENE,75,4.0,8.0,50,0.00,,,-99.99,,2013-05-07 20:42:00,
2013-05-07 16:52:00,72.0,54.0,-100.00,East,85,6.0,11.0,52,0.00,,,-99.99,,2013-05-07 20:52:00,
2013-05-07 17:01:00,72.0,54.0,-100.00,SSE,160,2.0,6.0,54,0.00,,,-99.99,,2013-05-07 21:01:00,
2013-05-07 17:11:00,71.0,55.0,-100.00,SSE,160,4.0,7.0,55,0.00,,,-99.99,,2013-05-07 21:11:00,
2013-05-07 17:22:00,71.0,55.0,-100.00,SSE,160,4.0,7.0,55,0.00,,,-99.99,,2013-05-07 21:22:00,
2013-05-07 17:33:00,71.0,55.0,-100.00,SE,145,4.0,9.0,55,0.00,,,-99.99,,2013-05-07 21:33:00,
2013-05-07 17:42:00,72.0,55.0,-100.00,South,175,4.0,9.0,55,0.00,,,-99.99,,2013-05-07 21:42:00,
2013-05-07 17:52:00,73.0,55.0,-100.00,SW,220,2.0,7.0,54,0.00,,,-99.99,,2013-05-07 21:52:00,
2013-05-07 18:02:00,74.0,54.0,-100.00,SE,135,1.0,6.0,51,0.00,,,-99.99,,2013-05-07 22:02:00,
2013-05-07 18:13:00,74.0,54.0,-100.00,SSE,160,4.0,9.0,51,0.00,,,-99.99,,2013-05-07 22:13:00,
2013-05-07 18:22:00,74.0,55.0,-100.00,SSE,165,1.0,6.0,50,0.00,,,-99.99,,2013-05-07 22:22:00,
2013-05-07 18:33:00,74.0,55.0,-100.00,SSE,165,1.0,6.0,49,0.00,,,-99.99,,2013-05-07 22:33:00,
2013-05-07 18:42:00,73.0,55.0,-100.00,WNW,300,3.0,7.0,53,0.00,,,-99.99,,2013-05-07 22:42:00,
2013-05-07 18:52:00,73.0,55.0,-100.00,WNW,300,2.0,9.0,53,0.00,,,-99.99,,2013-05-07 22:52:00,
2013-05-07 19:02:00,73.0,55.0,-100.00,NW,325,4.0,7.0,53,0.00,,,-99.99,,2013-05-07 23:02:00,
2013-05-07 19:12:00,73.0,55.0,-100.00,SE,125,1.0,5.0,52,0.00,,,-99.99,,2013-05-07 23:12:00,
2013-05-07 19:21:00,73.0,55.0,-100.00,WSW,255,2.0,4.0,52,0.00,,,-99.99,,2013-05-07 23:21:00,
2013-05-07 19:32:00,73.0,52.0,-100.00,SSE,165,6.0,9.0,47,0.00,,,-99.99,,2013-05-07 23:32:00,
2013-05-07 19:42:00,73.0,52.0,-100.00,South,175,2.0,7.0,48,0.00,,,-99.99,,2013-05-07 23:42:00,
2013-05-07 19:52:00,73.0,52.0,-100.00,SW,225,1.0,7.0,48,0.00,,,-99.99,,2013-05-07 23:52:00,
2013-05-07 20:02:00,72.0,54.0,-100.00,North,0,2.0,6.0,53,0.00,,,-99.99,,2013-05-08 00:02:00,
2013-05-07 20:12:00,71.0,54.0,-100.00,NNE,25,1.0,5.0,55,0.00,,,-99.99,,2013-05-08 00:12:00,
2013-05-07 20:22:00,70.0,54.0,-100.00,NE,55,1.0,7.0,56,0.00,,,-99.99,,2013-05-08 00:22:00,
2013-05-07 20:32:00,70.0,54.0,-100.00,North,0,2.0,6.0,57,0.00,,,-99.99,,2013-05-08 00:32:00,
2013-05-07 20:42:00,69.0,54.0,-100.00,NNE,30,1.0,4.0,58,0.00,,,-99.99,,2013-05-08 00:42:00,
2013-05-07 20:51:00,69.0,54.0,-100.00,North,350,2.0,4.0,59,0.00,,,-99.99,,2013-05-08 00:51:00,
2013-05-07 21:02:00,68.0,55.0,-100.00,North,350,1.0,5.0,61,0.00,,,-99.99,,2013-05-08 01:02:00,
2013-05-07 21:11:00,67.0,54.0,-100.00,South,170,1.0,3.0,62,0.00,,,-99.99,,2013-05-08 01:11:00,
2013-05-07 21:22:00,67.0,55.0,-100.00,South,170,1.0,4.0,64,0.00,,,-99.99,,2013-05-08 01:22:00,
2013-05-07 21:32:00,66.0,55.0,-100.00,North,355,1.0,3.0,66,0.00,,,-99.99,,2013-05-08 01:32:00,
2013-05-07 21:42:00,66.0,55.0,-100.00,South,180,9.0,11.0,67,0.00,,,-99.99,,2013-05-08 01:42:00,
2013-05-07 21:52:00,65.0,55.0,-100.00,South,190,4.0,11.0,69,0.00,,,-99.99,,2013-05-08 01:52:00,
2013-05-07 22:02:00,65.0,55.0,-100.00,East,95,1.0,4.0,70,0.00,,,-99.99,,2013-05-08 02:02:00,
2013-05-07 22:12:00,65.0,56.0,-100.00,SW,220,1.0,4.0,73,0.00,,,-99.99,,2013-05-08 02:12:00,
2013-05-07 22:22:00,65.0,57.0,-100.00,WNW,290,1.0,2.0,74,0.00,,,-99.99,,2013-05-08 02:22:00,
2013-05-07 22:32:00,65.0,57.0,-100.00,West,265,0.0,3.0,76,0.00,,,-99.99,,2013-05-08 02:32:00,
2013-05-07 22:42:00,65.0,58.0,-100.00,NNW,340,1.0,3.0,77,0.00,,,-99.99,,2013-05-08 02:42:00,
2013-05-07 22:52:00,64.0,58.0,-100.00,North,355,1.0,4.0,79,0.00,,,-99.99,,2013-05-08 02:52:00,
2013-05-07 23:02:00,64.0,58.0,-100.00,North,0,1.0,4.0,80,0.00,,,-99.99,,2013-05-08 03:02:00,
2013-05-07 23:11:00,64.0,58.0,-100.00,ENE,65,0.0,4.0,81,0.00,,,-99.99,,2013-05-08 03:11:00,
2013-05-07 23:21:00,64.0,58.0,-100.00,WNW,295,0.0,1.0,82,0.00,,,-99.99,,2013-05-08 03:21:00,
2013-05-07 23:33:00,63.0,58.0,-100.00,ESE,115,0.0,1.0,83,0.00,,,-99.99,,2013-05-08 03:33:00,
2013-05-07 23:43:00,63.0,58.0,-100.00,NNW,330,0.0,1.0,84,0.00,,,-99.99,,2013-05-08 03:43:00,
2013-05-07 23:52:00,62.0,58.0,-100.00,NNW,335,0.0,2.0,85,0.00,,,-99.99,,2013-05-08 03:52:00,